EW9273 Weather Reports


Display with metric or nautical units.
time (UTC)temp
F
wind
direction
speed
MPH
gust
MPH
rain 1hr
in
rain 24hr
in
rain mn
in
humidity
%
barometer
mb
20260509124526 72 79 1.0 3.0 0.01 0.01 0.01 94 1009.1
20260509124026 72 355 0.0 3.0 0.01 0.01 0.01 94 1008.9
20260509123525 72 57 1.0 6.0 0.01 0.01 0.01 93 1008.9
20260509123024 72 343 2.0 6.0 0.01 0.01 0.01 93 1008.9
20260509122522 72 30 2.0 4.0 0.00 0.00 0.00 93 1008.9
20260509122020 72 71 1.0 4.0 0.00 0.00 0.00 93 1009.0
20260509121520 72 55 1.0 4.0 0.00 0.00 0.00 93 1009.0
20260509121018 72 342 2.0 10.0 0.00 0.00 0.00 93 1009.1
20260509120516 72 22 2.0 10.0 0.00 0.00 0.00 93 1009.0
20260509120015 72 22 1.0 9.0 0.00 0.00 0.00 93 1009.0
20260509115513 72 340 3.0 9.0 0.00 0.00 0.00 93 1008.8
20260509115012 72 5 1.0 4.0 0.00 0.00 0.00 93 1008.7
20260509114510 72 360 1.0 4.0 0.00 0.00 0.00 93 1008.6
20260509114009 72 336 1.0 5.0 0.00 0.00 0.00 92 1008.5
20260509113507 72 327 2.0 5.0 0.00 0.00 0.00 92 1008.2
20260509113006 72 43 0.0 3.0 0.00 0.00 0.00 92 1008.0
20260509112504 72 43 1.0 4.0 0.00 0.00 0.00 92 1007.9
20260509112003 72 23 1.0 4.0 0.00 0.00 0.00 92 1007.9
20260509111504 72 336 0.0 3.0 0.00 0.00 0.00 92 1008.0
20260509111101 72 336 0.0 3.0 0.00 0.00 0.00 92 1007.8
20260509110559 72 336 0.0 4.0 0.00 0.00 0.00 92 1007.8
20260509110502 72 336 1.0 4.0 0.00 0.00 0.00 92 1007.9
20260509110058 72 45 0.0 4.0 0.00 0.00 0.00 92 1007.8
20260509105556 72 57 2.0 4.0 0.00 0.00 0.00 91 1007.8
20260509105054 72 40 0.0 3.0 0.00 0.00 0.00 91 1007.9
20260509104557 72 68 0.0 4.0 0.00 0.00 0.00 91 1008.0
20260509104051 72 68 2.0 4.0 0.00 0.00 0.00 91 1007.9
20260509103550 72 66 0.0 3.0 0.00 0.00 0.00 91 1008.1
20260509103058 72 66 1.0 5.0 0.00 0.00 0.00 91 1008.1
20260509102547 72 66 1.0 5.0 0.00 0.00 0.00 91 1008.1
20260509102046 72 34 1.0 4.0 0.00 0.00 0.00 91 1008.1
20260509101545 72 36 1.0 4.0 0.00 0.00 0.00 91 1008.4
20260509101043 72 52 0.0 4.0 0.00 0.00 0.00 90 1008.2
20260509100544 72 61 2.0 4.0 0.00 0.00 0.00 90 1008.2
20260509100043 72 26 1.0 4.0 0.00 0.00 0.00 90 1008.2
20260509095544 72 57 0.0 6.0 0.00 0.00 0.00 90 1007.9
20260509095042 72 39 2.0 6.0 0.00 0.00 0.00 90 1007.6
20260509094553 72 74 0.0 3.0 0.00 0.00 0.00 90 1007.5
20260509094042 72 69 1.0 3.0 0.00 0.00 0.00 90 1007.4
20260509093541 72 5 0.0 3.0 0.00 0.00 0.00 90 1007.3
20260509093041 72 59 1.0 3.0 0.00 0.00 0.00 89 1007.2
20260509092544 72 59 0.0 3.0 0.00 0.00 0.00 89 1007.0
20260509092043 72 28 1.0 3.0 0.00 0.00 0.00 89 1007.0
20260509091548 72 34 0.0 2.0 0.00 0.00 0.00 89 1006.9
20260509091037 72 34 0.0 3.0 0.00 0.00 0.00 89 1006.9
20260509090536 72 339 0.0 2.0 0.00 0.00 0.00 89 1007.0
20260509090039 72 339 0.0 2.0 0.00 0.00 0.00 89 1007.2
20260509085536 72 339 0.0 0.0 0.00 0.00 0.00 89 1007.1
20260509085035 72 339 0.0 3.0 0.00 0.00 0.00 89 1007.1
20260509084533 72 339 0.0 3.0 0.00 0.00 0.00 89 1007.1
20260509084030 72 339 0.0 1.0 0.00 0.00 0.00 88 1006.8
20260509083530 72 339 0.0 3.0 0.00 0.00 0.00 88 1006.9
20260509083030 72 339 1.0 3.0 0.00 0.00 0.00 88 1007.1
20260509082533 72 67 0.0 3.0 0.00 0.00 0.00 88 1006.9
20260509082029 72 77 0.0 4.0 0.00 0.00 0.00 88 1006.8
20260509081529 73 82 2.0 4.0 0.00 0.00 0.00 88 1007.3
20260509081028 72 20 0.0 3.0 0.00 0.00 0.00 88 1007.6
20260509080531 73 42 0.0 6.0 0.00 0.00 0.00 88 1007.3
20260509080026 73 157 2.0 8.0 0.00 0.00 0.00 88 1007.2
20260509075524 73 146 3.0 8.0 0.00 0.00 0.00 88 1007.4
20260509075024 73 154 1.0 7.0 0.00 0.00 0.00 87 1007.5
20260509074523 73 167 1.0 7.0 0.00 0.00 0.00 87 1007.7
20260509074025 73 215 0.0 4.0 0.00 0.00 0.00 87 1007.6
20260509073521 73 174 0.0 5.0 0.00 0.00 0.00 87 1007.1
20260509073033 73 153 0.0 4.0 0.00 0.00 0.00 87 1007.0
20260509072519 73 158 1.0 6.0 0.00 0.00 0.00 87 1007.2
20260509072017 73 163 1.0 6.0 0.00 0.00 0.00 87 1007.7
20260509071516 73 138 2.0 7.0 0.00 0.00 0.00 87 1007.7
20260509071016 73 161 4.0 9.0 0.00 0.00 0.00 86 1007.7
20260509070516 73 174 1.0 6.0 0.00 0.00 0.00 86 1007.6
20260509070014 73 157 1.0 5.0 0.00 0.00 0.00 86 1007.6
20260509065511 73 132 0.0 5.0 0.00 0.00 0.00 86 1007.7
20260509065010 73 185 0.0 3.0 0.00 0.00 0.00 86 1007.9
20260509064512 73 185 0.0 2.0 0.00 0.00 0.00 86 1007.9
20260509064011 73 185 0.0 2.0 0.00 0.00 0.00 86 1008.0
20260509063505 73 185 0.0 2.0 0.00 0.00 0.00 85 1008.0
20260509063008 73 185 0.0 1.0 0.00 0.00 0.00 85 1008.0
20260509062503 73 185 0.0 1.0 0.00 0.00 0.00 85 1008.1
20260509062004 73 185 0.0 3.0 0.00 0.00 0.00 85 1008.0
20260509061601 73 185 0.0 3.0 0.00 0.00 0.00 85 1008.0
20260509061058 73 185 0.0 2.0 0.00 0.00 0.00 85 1008.0
20260509060558 73 185 0.0 2.0 0.00 0.00 0.00 85 1008.0
20260509060112 73 185 0.0 2.0 0.00 0.00 0.00 85 1007.9
20260509055555 73 185 0.0 2.0 0.00 0.00 0.00 85 1007.9
20260509055053 73 185 0.0 3.0 0.00 0.00 0.00 85 1008.0
20260509054552 73 185 0.0 2.0 0.00 0.00 0.00 85 1008.2
20260509054049 73 185 0.0 3.0 0.00 0.00 0.00 85 1008.2
20260509053548 73 185 0.0 3.0 0.00 0.00 0.00 85 1008.3
20260509053057 73 185 0.0 3.0 0.00 0.00 0.00 85 1008.4
20260509052545 73 178 0.0 2.0 0.00 0.00 0.00 85 1008.6
20260509052044 73 178 0.0 4.0 0.00 0.00 0.00 85 1008.7
20260509051547 73 178 0.0 4.0 0.00 0.00 0.00 85 1008.9
20260509051043 73 26 0.0 3.0 0.00 0.00 0.00 85 1008.8
20260509050540 73 184 0.0 4.0 0.00 0.00 0.00 85 1008.8
20260509050039 73 184 0.0 4.0 0.00 0.00 0.00 85 1008.5
20260509045539 73 85 0.0 3.0 0.00 0.00 0.00 85 1008.2
20260509045037 73 92 0.0 2.0 0.00 0.00 0.00 85 1008.3
20260509044537 73 72 0.0 0.0 0.00 0.00 0.00 85 1008.5
20260509044037 73 72 0.0 3.0 0.00 0.00 0.00 85 1008.6
20260509043536 73 72 0.0 3.0 0.00 0.00 0.00 85 1008.6
20260509043044 73 72 0.0 3.0 0.00 0.00 0.00 85 1008.4
20260509042536 73 72 0.0 3.0 0.00 0.00 0.00 84 1008.2
20260509042036 73 72 1.0 4.0 0.00 0.00 0.00 84 1008.2
20260509041536 73 72 2.0 4.0 0.00 0.00 0.00 84 1008.1
20260509041036 72 72 1.0 8.0 0.00 0.00 0.00 84 1008.0
20260509040535 72 91 1.0 8.0 0.00 0.00 0.00 84 1008.0
20260509040045 72 84 2.0 5.0 0.00 0.00 0.00 83 1008.0
20260509035535 72 38 0.0 3.0 0.00 0.00 0.00 83 1007.8
20260509035039 72 71 1.0 4.0 0.00 0.00 0.00 83 1007.6
20260509034534 73 71 1.0 6.0 0.00 0.00 0.00 83 1007.6
20260509034034 73 97 2.0 6.0 0.00 0.00 0.00 83 1007.5
20260509033534 73 71 2.0 5.0 0.00 0.00 0.00 82 1007.3
20260509033042 73 78 1.0 3.0 0.00 0.00 0.00 82 1007.5
20260509032534 73 78 1.0 4.0 0.00 0.00 0.00 82 1007.8
20260509032036 73 79 2.0 4.0 0.00 0.00 0.00 82 1007.8
20260509031533 73 79 1.0 4.0 0.00 0.00 0.00 82 1007.7
20260509031033 73 65 1.0 3.0 0.00 0.00 0.00 82 1007.7
20260509030533 74 65 1.0 3.0 0.00 0.00 0.00 81 1007.6
20260509030033 74 65 0.0 2.0 0.00 0.00 0.00 81 1007.6
20260509025533 74 65 0.0 4.0 0.00 0.00 0.00 81 1007.7
20260509025033 74 65 1.0 4.0 0.00 0.00 0.00 81 1007.5
20260509024535 74 65 2.0 4.0 0.00 0.00 0.00 81 1007.4
20260509024033 74 80 1.0 4.0 0.00 0.00 0.00 81 1007.3
20260509023533 74 80 1.0 4.0 0.00 0.00 0.00 81 1007.3
20260509023032 74 57 1.0 3.0 0.00 0.00 0.00 81 1007.3
20260509022532 74 54 0.0 3.0 0.00 0.00 0.00 81 1007.3
20260509022032 74 54 0.0 4.0 0.00 0.00 0.00 80 1007.2
20260509021531 74 71 2.0 4.0 0.00 0.00 0.00 80 1007.0
20260509021033 74 63 2.0 4.0 0.00 0.00 0.00 80 1006.9
20260509020533 74 74 1.0 4.0 0.00 0.00 0.00 80 1006.8
20260509020031 74 82 2.0 4.0 0.00 0.00 0.00 80 1006.7
20260509015531 74 78 1.0 3.0 0.00 0.00 0.00 80 1006.7
20260509015031 74 78 1.0 4.0 0.00 0.00 0.00 80 1006.6
20260509014531 74 86 2.0 4.0 0.00 0.00 0.00 80 1006.6
20260509014030 74 79 2.0 3.0 0.00 0.00 0.00 80 1006.8
20260509013630 74 56 0.0 3.0 0.00 0.00 0.00 79 1006.7
20260509013031 74 87 1.0 3.0 0.00 0.00 0.00 79 1006.6
20260509012528 74 87 1.0 4.0 0.00 0.00 0.00 79 1006.5
20260509012028 75 38 2.0 6.0 0.00 0.00 0.00 79 1006.5
20260509011528 75 85 2.0 6.0 0.00 0.00 0.00 78 1006.3
20260509011028 75 79 2.0 6.0 0.00 0.00 0.00 78 1006.4
20260509010528 75 54 2.0 6.0 0.00 0.00 0.00 78 1006.4
20260509010034 75 74 2.0 5.0 0.00 0.00 0.00 78 1006.3
20260509005528 75 86 1.0 5.0 0.00 0.00 0.00 78 1006.3
20260509005027 76 38 2.0 5.0 0.00 0.00 0.00 77 1006.3
20260509004527 76 66 2.0 5.0 0.00 0.00 0.00 77 1006.2
20260509004026 76 39 2.0 6.0 0.00 0.00 0.00 77 1006.2
20260509003526 76 101 2.0 8.0 0.00 0.00 0.00 77 1006.3
20260509003026 76 100 3.0 8.0 0.00 0.00 0.00 77 1006.3
20260509002525 76 96 2.0 5.0 0.00 0.00 0.00 77 1006.3
20260509002027 76 78 1.0 3.0 0.00 0.00 0.00 76 1006.3
20260509001525 76 79 1.0 4.0 0.00 0.00 0.00 76 1006.4
20260509001026 76 57 2.0 6.0 0.00 0.00 0.00 76 1006.5
20260509000525 76 76 1.0 6.0 0.00 0.00 0.00 76 1006.4
20260509000025 77 74 1.0 6.0 0.00 0.00 0.00 76 1006.3
20260508235525 77 94 2.0 5.0 0.00 0.00 0.00 76 1006.3
20260508235024 76 82 1.0 5.0 0.00 0.00 0.00 76 1006.3
20260508234524 77 26 1.0 6.0 0.00 0.00 0.00 75 1006.2
20260508234023 77 57 2.0 6.0 0.00 0.00 0.00 75 1006.3
20260508233525 77 42 3.0 6.0 0.00 0.00 0.00 74 1006.3
20260508233026 77 80 2.0 6.0 0.00 0.00 0.00 75 1006.3
20260508232522 77 117 2.0 5.0 0.00 0.00 0.00 75 1006.3
20260508232022 77 88 1.0 6.0 0.00 0.00 0.00 75 1006.3
20260508231522 77 81 2.0 6.0 0.00 0.00 0.00 75 1006.3
20260508231022 77 30 3.0 6.0 0.00 0.00 0.00 75 1006.3
20260508230521 77 78 3.0 9.0 0.00 0.00 0.00 74 1006.3
20260508230021 77 71 3.0 9.0 0.00 0.00 0.00 74 1006.3
20260508225520 77 40 3.0 7.0 0.00 0.00 0.00 75 1006.3
20260508225020 77 37 4.0 7.0 0.00 0.00 0.00 75 1006.3
20260508224521 76 75 2.0 6.0 0.00 0.00 0.00 75 1006.5
20260508224020 76 65 2.0 6.0 0.00 0.00 0.00 75 1006.6
20260508223519 76 76 2.0 8.0 0.00 0.00 0.00 75 1006.6
20260508223017 76 63 3.0 8.0 0.00 0.00 0.00 74 1006.6
20260508222517 76 51 3.0 6.0 0.00 0.00 0.00 74 1006.6
20260508222015 76 65 3.0 6.0 0.00 0.00 0.00 75 1006.7
20260508221515 76 59 3.0 6.0 0.00 0.00 0.00 75 1006.8
20260508221014 76 128 1.0 4.0 0.00 0.00 0.00 75 1006.9
20260508220513 76 106 1.0 8.0 0.00 0.00 0.00 75 1006.9
20260508220012 76 75 3.0 6.0 0.00 0.00 0.00 74 1007.0
20260508215517 76 90 2.0 8.0 0.00 0.00 0.00 74 1007.0
20260508215012 76 85 1.0 8.0 0.00 0.00 0.00 75 1007.0
20260508214523 76 84 2.0 9.0 0.00 0.00 0.00 74 1007.1
20260508214011 76 22 3.0 9.0 0.00 0.00 0.00 73 1007.1
20260508213510 76 22 2.0 5.0 0.00 0.00 0.00 73 1007.1
20260508213009 76 34 2.0 5.0 0.00 0.00 0.00 73 1007.1
20260508212509 76 59 2.0 5.0 0.00 0.00 0.00 73 1007.3
20260508212011 76 76 1.0 4.0 0.00 0.00 0.00 73 1007.2
20260508211512 76 70 2.0 5.0 0.00 0.00 0.00 73 1007.3
20260508211006 76 53 3.0 5.0 0.00 0.00 0.00 72 1007.5
20260508210505 76 102 1.0 7.0 0.00 0.00 0.00 72 1007.7
20260508210006 75 69 2.0 7.0 0.00 0.00 0.00 73 1007.7
20260508205503 75 313 2.0 5.0 0.00 0.00 0.00 73 1007.8
20260508205005 75 67 2.0 5.0 0.00 0.00 0.00 73 1007.9
20260508204502 75 44 3.0 5.0 0.00 0.00 0.00 73 1007.9
20260508204001 75 69 2.0 6.0 0.00 0.00 0.00 73 1008.0
20260508203502 75 54 1.0 5.0 0.00 0.00 0.00 73 1007.9
20260508203001 75 57 0.0 7.0 0.00 0.00 0.00 74 1007.9
20260508202603 74 82 1.0 9.0 0.00 0.00 0.00 74 1007.9
20260508202100 74 29 3.0 9.0 0.00 0.00 0.00 73 1008.0
20260508201559 74 78 3.0 8.0 0.00 0.00 0.00 73 1008.0
20260508201059 74 74 3.0 9.0 0.00 0.00 0.00 73 1008.1
20260508200558 74 66 3.0 9.0 0.00 0.00 0.00 73 1008.1
20260508200058 74 113 2.0 9.0 0.00 0.00 0.00 73 1008.2
20260508195558 74 58 3.0 9.0 0.00 0.00 0.00 73 1008.3
20260508195055 74 62 3.0 10.0 0.00 0.00 0.00 73 1008.3
20260508194605 73 59 4.0 10.0 0.00 0.00 0.00 74 1008.3
20260508194053 73 126 1.0 7.0 0.00 0.00 0.00 74 1008.3
20260508193551 73 93 3.0 7.0 0.00 0.00 0.00 74 1008.3
20260508193113 72 90 4.0 8.0 0.00 0.00 0.00 74 1008.4
20260508192551 72 89 4.0 8.0 0.00 0.00 0.00 75 1008.5
20260508192052 72 73 2.0 8.0 0.00 0.00 0.00 74 1008.6
20260508191557 72 77 2.0 6.0 0.00 0.00 0.00 74 1008.7
20260508191047 71 41 3.0 6.0 0.00 0.00 0.00 74 1008.8
20260508190549 71 32 3.0 8.0 0.00 0.00 0.00 74 1008.9
20260508190107 72 65 3.0 8.0 0.00 0.00 0.00 74 1008.8
20260508185545 71 32 3.0 8.0 0.00 0.02 0.00 75 1008.7
20260508185045 71 57 4.0 8.0 0.00 0.02 0.00 74 1008.8
20260508184544 71 63 3.0 8.0 0.00 0.02 0.00 74 1008.9
20260508184045 71 112 4.0 8.0 0.00 0.02 0.00 75 1009.0
20260508183541 70 84 2.0 8.0 0.00 0.02 0.00 75 1009.1
20260508183044 71 114 3.0 5.0 0.00 0.02 0.00 74 1009.3
20260508182540 71 71 2.0 7.0 0.00 0.02 0.00 74 1009.4
20260508182038 70 84 2.0 7.0 0.00 0.02 0.00 74 1009.4
20260508181545 70 54 2.0 5.0 0.00 0.02 0.00 74 1009.5
20260508181037 70 50 2.0 5.0 0.00 0.02 0.00 74 1009.7
20260508180539 70 61 2.0 5.0 0.00 0.02 0.00 74 1009.7
20260508180036 70 92 1.0 6.0 0.00 0.02 0.00 74 1009.9
20260508175535 70 84 1.0 6.0 0.00 0.02 0.00 74 1009.9
20260508175035 70 44 1.0 3.0 0.00 0.02 0.00 74 1010.0
20260508174538 70 44 2.0 4.0 0.00 0.02 0.00 74 1009.9
20260508174033 70 71 2.0 4.0 0.00 0.02 0.00 74 1010.0
20260508173533 70 55 1.0 5.0 0.00 0.02 0.00 74 1010.1
20260508173032 70 40 2.0 5.0 0.00 0.02 0.00 74 1010.0
20260508172532 69 44 1.0 6.0 0.00 0.02 0.00 73 1010.1
20260508172032 70 95 1.0 5.0 0.00 0.02 0.00 73 1010.2
20260508171540 70 71 1.0 4.0 0.00 0.02 0.00 73 1010.1
20260508171030 70 65 2.0 4.0 0.00 0.02 0.00 73 1010.1
20260508170531 70 328 1.0 4.0 0.00 0.02 0.00 73 1010.1
20260508170030 70 30 2.0 4.0 0.00 0.02 0.00 73 1010.3
20260508165529 69 355 0.0 4.0 0.00 0.02 0.00 74 1010.4
20260508165027 69 55 2.0 4.0 0.00 0.02 0.00 74 1010.4
20260508164527 68 32 1.0 4.0 0.00 0.02 0.00 74 1010.2
20260508164025 68 57 2.0 5.0 0.00 0.02 0.00 74 1010.3
20260508163524 68 78 2.0 6.0 0.00 0.02 0.00 74 1010.5
20260508163024 68 76 3.0 6.0 0.00 0.02 0.00 74 1010.5
20260508162625 68 78 3.0 6.0 0.00 0.02 0.00 74 1010.5
20260508162024 68 54 2.0 6.0 0.00 0.02 0.00 74 1010.5
20260508161538 68 19 2.0 6.0 0.00 0.02 0.00 75 1010.6
20260508161022 67 80 2.0 7.0 0.00 0.02 0.00 76 1010.6
20260508160520 67 347 2.0 7.0 0.00 0.02 0.00 75 1010.7
20260508160021 66 67 1.0 7.0 0.00 0.02 0.00 75 1010.8
20260508155519 67 79 3.0 6.0 0.00 0.02 0.00 76 1010.9
20260508155018 66 343 1.0 5.0 0.00 0.02 0.00 77 1010.9
20260508154520 66 355 1.0 6.0 0.00 0.02 0.00 77 1010.9
20260508154018 65 355 2.0 5.0 0.00 0.02 0.00 77 1011.1
20260508153515 65 15 2.0 5.0 0.00 0.02 0.00 77 1011.3
20260508153025 65 355 2.0 5.0 0.00 0.02 0.00 77 1011.4
20260508152514 65 54 2.0 5.0 0.00 0.02 0.00 77 1011.4
20260508152013 65 33 2.0 6.0 0.00 0.02 0.00 77 1011.3
20260508151513 65 360 2.0 6.0 0.00 0.02 0.00 77 1011.3
20260508151016 65 55 2.0 10.0 0.00 0.02 0.00 77 1011.4
20260508150511 64 36 3.0 10.0 0.00 0.02 0.00 78 1011.4
20260508150011 64 79 3.0 7.0 0.00 0.02 0.00 78 1011.4
20260508145510 64 50 4.0 9.0 0.00 0.02 0.00 78 1011.4
20260508145010 64 28 2.0 5.0 0.00 0.02 0.00 78 1011.6
20260508144509 64 32 2.0 8.0 0.00 0.02 0.00 78 1011.7
20260508144008 64 334 2.0 8.0 0.00 0.02 0.00 78 1011.7
20260508143508 64 46 2.0 6.0 0.00 0.02 0.00 78 1011.7
20260508143007 64 343 2.0 5.0 0.00 0.02 0.00 78 1011.7
20260508142507 64 33 2.0 6.0 0.00 0.02 0.00 78 1011.5
20260508142006 64 39 2.0 6.0 0.00 0.02 0.00 78 1011.5
20260508141507 64 14 2.0 6.0 0.00 0.02 0.00 78 1011.5
20260508141005 64 327 2.0 6.0 0.00 0.02 0.00 78 1011.4
20260508140505 64 20 2.0 6.0 0.00 0.02 0.00 78 1011.5
20260508140006 64 22 2.0 6.0 0.00 0.02 0.00 78 1011.6
20260508135504 64 36 1.0 8.0 0.00 0.02 0.00 78 1011.5
20260508135004 64 67 4.0 8.0 0.00 0.02 0.00 78 1011.3
20260508134503 63 14 2.0 8.0 0.00 0.02 0.00 78 1011.2
20260508134002 63 78 4.0 8.0 0.00 0.02 0.00 77 1011.1
20260508133502 63 79 3.0 8.0 0.00 0.02 0.00 77 1011.0
20260508133001 63 36 3.0 6.0 0.00 0.02 0.00 77 1011.2
20260508132559 63 42 2.0 5.0 0.00 0.02 0.00 77 1011.2
20260508132059 63 79 1.0 9.0 0.00 0.02 0.00 77 1011.4
20260508131600 63 9 2.0 9.0 0.00 0.02 0.00 77 1011.5
20260508131059 63 59 2.0 4.0 0.00 0.02 0.00 77 1011.5
20260508130557 63 38 1.0 4.0 0.00 0.02 0.00 77 1011.4
20260508130057 63 339 1.0 4.0 0.00 0.02 0.00 77 1011.4
20260508125559 63 32 1.0 5.0 0.00 0.02 0.00 77 1011.4
20260508125056 63 29 3.0 5.0 0.00 0.02 0.00 77 1011.4